Location: Eppenbrunn
(49.1158°N, 7.5601°E)
Time: 03:52:38
(UTC+00:00)

Cosmos 2360 Rocket - Pass Details

Date: 09 April 2020
Orbit: 833 x 845 km, 71.0° (Epoch: 06 June)

Event Time Altitude Azimuth Distance (km) Brightness Sun altitude
Rises 21:28:00 0° 335° (NNW) 3,393 6.6 -26.8°
Reaches altitude 10° 21:31:09 10° 352° (N) 2,457 5.4 -27.1°
Maximum altitude 21:35:12 20° 39° (NE) 1,854 4.1 -27.5°
Enters shadow 21:36:53 18° 62° (ENE) 1,968 4.0 -27.6°
